Regional Weather Roundup
Issued by NWS

Home | Current Version | Previous Version | Graphics & Text | Print | Product List | Glossary On
Versions: 1 2 3 4 5 6 7 8 9 10 11 12 13 14 15 16 17 18 19 20 21 22 23 24 25 26 27 28 29 30 31 32 33 34 35 36 37 38 39 40 41 42 43 44 45 46 47 48 49 50
000
ASUS43 KDMX 131403
RWRIA

WEATHER ROUNDUP FOR IOWA
NATIONAL WEATHER SERVICE DES MOINES IA
800 AM CST SAT FEB 13 2016

NOTE: "FAIR" INDICATES FEW OR NO CLOUDS BELOW 12,000 FEET WITH NO
SIGNIFICANT WEATHER AND/OR OBSTRUCTIONS TO VISIBILITY.

* - THESE STATIONS ARE NOT NWS STATIONS...THUS NOT UNDER NWS
QUALITY CONTROL.  THEY ALSO DO NOT REPORT WEATHER SUCH
AS PRECIPITATION OR FOG.

IAZ001>003-012>014-020>022-031>034-043>046-131500-
   NORTHWEST IOWA

CITY           SKY/WX    TMP DP  RH WIND       PRES   REMARKS
CARROLL *      CLOUDY     1  -4  78 CALM      30.61F
CHEROKEE *     CLOUDY     1  -4  78 SE7       30.59F WCI -11
DENISON *      CLOUDY     3  -2  78 SE7       30.57S WCI  -9
LE MARS *      CLOUDY     3  -2  78 SE7       30.58F WCI  -9
ORANGE CITY *  CLOUDY     1  -4  78 SE5       30.54F WCI  -8
SHELDON *      CLOUDY     0  -6  78 SE10      30.55F WCI -17
SIOUX CITY     CLOUDY     7  -3  64 SE12      30.58F WCI  -8
SPENCER        CLOUDY    -3  -9  75 S3        30.59R
STORM LAKE *   CLOUDY     0  -6  78 SE6       30.58S WCI -12
$$

IAZ055>058-069>071-079>083-090>094-131500-
   SOUTHWEST IOWA

CITY           SKY/WX    TMP DP  RH WIND       PRES   REMARKS
ATLANTIC *     CLOUDY     5  -2  72 SE5       30.61S WCI  -4
AUDUBON *      CLOUDY     3  -2  78 SE3       30.60S
CLARINDA *     CLOUDY    10   1  67 E6        30.64S WCI   1
COUNCIL BLFS * CLOUDY     9   3  78 E8        30.58F WCI  -4
CRESTON *      CLOUDY     5  -4  66 E6        30.61S WCI  -6
HARLAN  *      CLOUDY     5  -2  72 SE7       30.63F WCI  -7
LAMONI         CLOUDY     7  -2  66 E3        30.61F
RED OAK *      CLOUDY    10   1  67 E9        30.62F WCI  -2
SHENANDOAH *   CLOUDY    12   1  62 E9        30.62S WCI   0
$$

IAZ047>049-059>061-072>074-084-131500-
   CENTRAL IOWA

CITY           SKY/WX    TMP DP  RH WIND       PRES   REMARKS
AMES           PTCLDY     0  -6  76 CALM      30.65R
ANKENY *       PTCLDY     1  -6  71 N5        30.66S WCI  -8
BOONE *        CLOUDY     0  -8  71 CALM      30.62R
CHARITON *     CLOUDY     5  -4  66 CALM      30.65R
DES MOINES     CLOUDY     4  -4  69 W3        30.66R
GRINNELL*      CLOUDY     1  -6  71 N6        30.63R WCI -10
KNOXVILLE *    PTCLDY     3  -6  66 CALM      30.63R
MARSHALLTOWN   CLOUDY     0  -7  72 N3        30.63R
NEWTON *       CLEAR      1  -8  66 N5        30.64R WCI  -8
PELLA *        CLOUDY     3  -4  72 CALM      30.66R
$$

IAZ004>006-015-016-023>025-035-036-131500-
   NORTH CENTRAL IOWA

CITY           SKY/WX    TMP DP  RH WIND       PRES   REMARKS
ALGONA *       CLOUDY     0  -6  78 NE5       30.59S WCI -10
CLARION *      CLOUDY    -2  -9  71 NE5       30.62R WCI -12
ESTHERVILLE    CLOUDY    -3  -8  79 E5        30.58R WCI -13
FORT DODGE *   CLOUDY    -2  -9  71 CALM      30.63R
MASON CITY     CLOUDY    -6 -11  79 W5        30.61S WCI -17
FOREST CITY *  CLEAR     -6  -9  84 CALM      30.60R
WEBSTER CITY * PTCLDY    -2  -9  71 CALM      30.61R
IOWA FALLS *     N/A      0  -8  71 CALM      30.62S
$$

IAZ007>011-017>019-026>030-037>042-050>054-066-131500-
   NORTHEAST IOWA

CITY           SKY/WX    TMP DP  RH WIND       PRES   REMARKS
CEDAR RAPIDS   CLOUDY     2  -6  69 N7        30.62S WCI -11
CHARLES CITY * PTCLDY    -8 -15  71 CALM      30.62R
CLINTON *      CLOUDY     4  -4  69 NW7       30.64R WCI  -8
DECORAH *      PTCLDY    -8 -15  71 NW6       30.59R WCI -21
DUBUQUE        CLOUDY     0 -10  63 N8        30.59R WCI -14
MONTICELLO *   CLEAR      1  -9  60 NW7       30.63R WCI -11
OELWEIN *      CLEAR     -6 -15  65 W6        30.62R WCI -18
WATERLOO       CLOUDY    -3 -10  72 W3        30.63S
$$

IAZ064-065-067-068-078-131500-
   EAST CENTRAL IOWA

CITY           SKY/WX    TMP DP  RH WIND       PRES   REMARKS
DAVENPORT      CLOUDY     3  -7  63 NW8       30.64R WCI -10
IOWA CITY      CLOUDY     4  -5  66 NW6       30.68R WCI  -7
MT. PLEASANT * PTCLDY     7   0  72 NW6       30.66R WCI  -3
MUSCATINE *    CLEAR      5  -6  61 NW6       30.68R WCI  -6
QUAD CITIES    PTCLDY     6  -6  57 NW5       30.65R WCI  -3
$$

IAZ062-063-075>077-085>089-095>099-131500-
   SOUTHEAST IOWA

CITY           SKY/WX    TMP DP  RH WIND       PRES   REMARKS
BURLINGTON     CLOUDY     5  -3  69 N8        30.65R WCI  -8
FAIRFIELD *    CLEAR      3  -6  66 CALM      30.65S
FORT MADISON * CLEAR      5  -2  72 N3        30.65S
KEOKUK *       CLEAR      7  -2  66 CALM      30.65S
OSKALOOSA *      N/A      3  -2  78 CALM      30.66R
OTTUMWA        CLOUDY     5  -2  72 N5        30.66R WCI  -4
WASHINGTON *   CLOUDY     3  -4  72 N7        30.67R WCI  -9
$$

ABBREVIATIONS USED IN REMARKS
   TC - TEMPERATURES IN CELSIUS
  WCI - WIND CHILL INDEX
   HX - HEAT INDEX
  VSB - VISIBILITY
$$




USA.gov is the U.S. government's official web portal to all federal, state and local government web resources and services.